Tracking 19847 objects as of 18-Sep-2019
HD Live streaming from Space Station
objects crossing your sky now

FENGYUN 1C DEB

Track FENGYUN 1C DEB now!
10-day predictions


NORAD ID: 32357
Int'l Code: 1999-025CZA
Perigee: 663.6 km
Apogee: 1,515.8 km
Inclination: 98.9 °
Period: 106.9 minutes
Semi major axis: 7460 km
RCS: 0.0112 m2 (small)
Launch date: May 10, 1999
Source: People's Republic of China (PRC)
Launch site: Taiyaun Space Center, China (TSC)

Note: This is SATELLITE DEBRIS
aabbcc
Your satellite tracking list
Your tracking list is empty




NASA's NSSDC Master Catalog

Two Line Element Set (TLE):
1 32357U 99025CZA 19256.88812595  .00000010  00000-0  32941-4 0  9998
2 32357  98.8702 125.7877 0571161 310.2096 108.2691 13.47203711599947
Source of the keplerian elements: AFSPC